User: anonymous   Login
Location: Adrasan
(36.3319°N, 30.4314°E)
Time: 05:28:40
(UTC+00:00)
Language:

Radarsat Rocket - Orbit

View from above orbital plane
View from above orbital plane
View from above satellite
View from above satellite

Ground track
Ground track

The orbit data is extracted from the following two-line orbital elements,

1 23711U 95059B   24112.67026664  .00000048  00000-0  17900-3 0  9991
2 23711 100.5720 136.3323 0368416  75.7796  28.1871 13.12787083363886
Epoch (UTC): 21 April 2024 16:05:11
Eccentricity: 0.0368416
inclination: 100.5720°
perigee height: 933 km
apogee height: 1492 km
right ascension of ascending node: 136.3323°
argument of perigee: 75.7796°
revolutions per day: 13.12787083
mean anomaly at epoch: 28.1871°
orbit number at epoch: 36388

The dashed part of the orbit path shows where the satellite is in the earth's shadow,  

DLR